Regional Weather Roundup
Issued by NWS

Home | Current Version | Previous Version | Graphics & Text | Print | Product List | Glossary On
Versions: 1 2 3 4 5 6 7 8 9 10 11 12 13 14 15 16 17 18 19 20 21 22 23 24 25 26 27 28 29 30 31 32 33 34 35 36 37 38 39 40 41 42 43 44 45 46 47 48 49 50
460
ASUS45 KTFX 281510
RWRMT
MONTANA REGIONAL WEATHER ROUNDUP
NATIONAL WEATHER SERVICE GREAT FALLS MT
900 AM MDT WED SEP 28 2016

NOTE: "FAIR" INDICATES FEW OR NO CLOUDS BELOW 12000 FEET WITH NO
SIGNIFICANT WEATHER AND/OR OBSTRUCTIONS TO VISIBILITY.

MTZ001>007-043-281600-
WEST OF THE DIVIDE

CITY           SKY/WX    TMP DP  RH WIND       PRES   REMARKS
KALISPELL      SUNNY     58  38  47 NE15      30.14S
MISSOULA       SUNNY     52  45  77 CALM      30.16R
BUTTE          SUNNY     42  37  82 CALM      30.28R
MULLAN PASS    SUNNY     53  40  61 SE10G17   30.19S
ANACONDA         N/A     50  39  66 S3        30.25S
DEER LODGE       N/A     46  39  76 CALM      30.28R
EUREKA           N/A     54  43  66 CALM      30.17S
HAMILTON         N/A     54  43  66 CALM      30.16S
LIBBY            N/A     46  43  87 CALM      30.14S
PLAINS           N/A     46  41  83 CALM      30.12R
RONAN            N/A     55  45  69 CALM      30.17R
THOMPSON FALLS   N/A     47  46  96 CALM      30.15
$$

MTZ008-052>055-281600-
SOUTHWEST MONTANA

CITY           SKY/WX    TMP DP  RH WIND       PRES   REMARKS
BOZEMAN        SUNNY     49  42  77 CALM      30.29R
DILLON         SUNNY     48  38  68 CALM      30.27S
W YELLOWSTONE  SUNNY     37  34  87 CALM      30.37S
ENNIS          SUNNY     48  39  71 CALM      30.34R
THREE FORKS      N/A     51  28  41 CALM      30.25R
TWIN BRIDGES     N/A     46  37  70 CALM      30.23R
$$

MTZ009-010-012-014-046-048-049-054-281600-
EAST SLOPES AND CENTRAL MONTANA

CITY           SKY/WX    TMP DP  RH WIND       PRES   REMARKS
CUT BANK       PTSUNNY   45  35  68 CALM      30.32S
GREAT FALLS    SUNNY     45  38  76 W3        30.32S
MALMSTROM AFB  SUNNY     46  39  78 SW3       30.32S
HELENA         SUNNY     53  37  54 W8        30.29R
AUGUSTA        CLOUDY    47  38  71 W1        30.31F
BOWMANS CRNR     N/A     46  37  69 N5        30.29F
CHOTEAU          N/A     48  37  66 NE5       30.34S
CONRAD           N/A     44  42  93 CALM      30.30F
FAIRFIELD        N/A     47  37  68 NW3       30.31S
POWER            N/A     46  37  72 N7        30.30F
RAYNESFORD       N/A     44  39  85 E6        30.31S
$$

MTZ011-013-016-021-045-047-050-051-281600-
NORTH CENTRAL MONTANA

CITY           SKY/WX    TMP DP  RH WIND       PRES   REMARKS
HAVRE          SUNNY     48  41  76 NE9       30.33S
LEWISTOWN      SUNNY     49  43  80 CALM      30.32S
N BAR RANCH      N/A     50  45  81 CALM      30.36R
CHINOOK          N/A     48  43  81 CALM      30.34S
DENTON           N/A     48  43  84 S3        30.29R
GEYSER         CLOUDY    47  38  71 W1        30.31F
GRASS RANGE      N/A     48  44  86 S1        30.31R
JUDITH GAP       N/A     47  41  80 NW6       30.33R
ROY              N/A     51  44  76 MISG      30.31S
STANFORD         N/A     46  42  84 E5        30.32S
WINIFRED         N/A     49  42  79 MISG      30.32R
$$

MTZ017>020-022>027-061-062-281600-
NORTHEAST MONTANA

CITY           SKY/WX    TMP DP  RH WIND       PRES   REMARKS
GLASGOW        SUNNY     53  44  71 VRB7      30.29R
JORDAN           N/A     54  45  71 N9        30.29R
SIDNEY         SUNNY     55  48  77 N10       30.26R
WOLF POINT     SUNNY     56  46  69 NE5       30.28R
PLENTYWOOD       N/A     52  46  82 N9        30.27R
POPLAR           N/A     54  45  71 N9        30.28R
$$

MTZ028>42-056>058-281600-
SOUTHCENTRAL AND SOUTHEAST MONTANA

CITY           SKY/WX    TMP DP  RH WIND       PRES   REMARKS
BAKER          SUNNY     56  49  77 NW3       30.26R
BILLINGS       SUNNY     53  45  74 E6        30.32R
LIVINGSTON     SUNNY     51  43  74 CALM      30.32R
MILES CITY     SUNNY     56  48  74 N5        30.28R
BIG TIMBER     SUNNY     52  45  76 E6        30.35S
EKALAKA          N/A     60  45  57 NW5       30.23R
FORSYTH          N/A     54  50  87 W3        30.29R
HARLOWTON        N/A     48  42  77 NW1       30.33R
LAUREL           N/A     55  45  69 NE5       30.28R
ROUNDUP          N/A     52  42  68 N8        30.21R
$$

REGIONAL REPORTS...DAKOTAS

CITY           SKY/WX    TMP DP  RH WIND       PRES   REMARKS
WILLISTON      SUNNY     53  47  79 N9        30.25R
MINOT          SUNNY     53  43  68 CALM      30.25R
DICKINSON      SUNNY     55  45  68 S3        30.22R
BEACH            N/A     54  52  94 N8        30.28R
CROSBY           N/A     50  50 100 N10       30.27R
WATFORD CITY     N/A     54  50  87 N5        30.24R
BISMARCK       SUNNY     48  42  80 E5        30.27R
GRAND FORKS    CLOUDY    50  44  80 NE3       30.29R
FARGO          CLOUDY    50  45  83 N8        30.27R
BUFFALO SD       N/A     65  47  52 NW8       30.18R
RAPID CITY     SUNNY     65  46  50 SE3       30.24R
$$

REGIONAL REPORTS...WYOMING/IDAHO/WASHINGTON

CITY           SKY/WX    TMP DP  RH WIND       PRES   REMARKS
GILLETTE       SUNNY     60  48  64 CALM      30.30R
SHERIDAN       SUNNY     59  46  62 NW6       30.30R
BUFFALO WY     SUNNY     67  41  38 CALM      30.34R
CODY           SUNNY     54  42  64 NE3       30.34R
YELLOWSTONE LA   N/A     41  38  89 CALM      30.43S
IDAHO FALLS    SUNNY     48  42  80 N6        30.23R
SALMON         SUNNY     43  41  93 CALM      30.22S
BOISE          SUNNY     60  40  47 CALM      30.05R
SPOKANE        MOSUNNY   55  40  56 N6        30.05S
$$

REGIONAL REPORTS...ALBERTA

CITY           SKY/WX    TMP DP  RH WIND       PRES   REMARKS
EDMONTON       PTSUNNY   39  36  87 CALM      30.34S
CALGARY        CLOUDY    48  32  53 S9        30.31F
LETHBRIDGE     MOSUNNY   50  37  62 NE5       30.32S
MEDICINE HAT   PTSUNNY   50  41  71 E6        30.34S
WATERTON GATE    N/A     45  36  70 NE5         N/A
MILK RIVER       N/A     39  34  81 NW3         N/A
ONEFOUR          N/A     46  37  71 E10         N/A
$$

REGIONAL REPORTS...SASKATCHEWAN

CITY           SKY/WX    TMP DP  RH WIND       PRES   REMARKS
SWIFT CURRENT  PTSUNNY   46  41  81 NE9       30.34R
REGINA         MOSUNNY   50  45  81 N10       30.30R
SASKATOON      MOSUNNY   41  41 100 NW3       30.39R
CYPRESS HILLS    N/A     46  36  66 E10G18      N/A
ROCKGLEN         N/A     46  43  87 N16         N/A
ASSINIBOIA       N/A     36  32  87 S2          N/A
$$




USA.gov is the U.S. government's official web portal to all federal, state and local government web resources and services.